GW3707 Weather Reports


time (UTC)temp
C
wind
direction
speed
KPH
gust
KPH
rain 1hr
cm
rain 24hr
cm
rain mn
cm
humidity
%
barometer
mb
20260906232517 37 124 3.2 17.7 0.00 0.00 0.00 48 1012.2
20260906231538 37 112 4.8 16.1 0.00 0.00 0.00 45 1012.3
20260906230516 37 112 9.7 19.3 0.00 0.00 0.00 45 1012.3
20260906225517 37 109 4.8 14.5 0.00 0.00 0.00 44 1012.3
20260906224517 37 109 8.0 19.3 0.00 0.00 0.00 44 1012.2
20260906223537 37 106 9.7 22.5 0.00 0.00 0.00 43 1012.2
20260906222517 37 104 8.0 17.7 0.00 0.00 0.00 45 1012.2
20260906221518 37 106 4.8 19.3 0.00 0.00 0.00 44 1012.2
20260906220517 38 110 8.0 19.3 0.00 0.00 0.00 44 1012.3
20260906215517 37 106 3.2 16.1 0.00 0.00 0.00 46 1012.4
20260906214537 37 109 9.7 19.3 0.00 0.00 0.00 45 1012.5
20260906213517 37 114 8.0 24.1 0.00 0.00 0.00 45 1012.6
20260906212518 37 109 3.2 12.9 0.00 0.00 0.00 45 1012.7
20260906211516 38 105 8.0 20.9 0.00 0.00 0.00 45 1012.7
20260906210538 38 105 1.6 16.1 0.00 0.00 0.00 44 1012.9
20260906205518 38 110 6.4 16.1 0.00 0.00 0.00 45 1013.0
20260906204557 38 103 6.4 20.9 0.00 0.00 0.00 44 1013.2
20260906203518 38 116 4.8 17.7 0.00 0.00 0.00 45 1013.2
20260906202537 37 122 3.2 16.1 0.00 0.00 0.00 45 1013.2
20260906201517 37 101 6.4 19.3 0.00 0.00 0.00 47 1013.5
20260906200517 36 105 3.2 17.7 0.00 0.00 0.00 47 1013.7
20260906195517 37 102 6.4 14.5 0.00 0.00 0.00 46 1013.7
20260906194517 37 103 6.4 19.3 0.00 0.00 0.00 47 1013.9
20260906193517 37 111 4.8 16.1 0.00 0.00 0.00 47 1014.0
20260906192517 37 107 4.8 17.7 0.00 0.00 0.00 48 1014.1
20260906191517 36 115 1.6 11.3 0.00 0.00 0.00 49 1014.2
20260906190517 36 98 6.4 17.7 0.00 0.00 0.00 48 1014.3
20260906185517 37 106 6.4 16.1 0.00 0.00 0.00 46 1014.5
20260906184517 37 138 1.6 11.3 0.00 0.00 0.00 49 1014.6
20260906183537 36 106 1.6 20.9 0.00 0.00 0.00 49 1014.8
20260906182517 36 119 4.8 19.3 0.00 0.00 0.00 50 1014.8
20260906181537 36 107 1.6 9.7 0.00 0.00 0.00 51 1014.9
20260906180537 35 95 1.6 16.1 0.00 0.00 0.00 52 1015.1
20260906175517 36 106 9.7 19.3 0.00 0.00 0.00 52 1015.3
20260906174517 36 110 4.8 17.7 0.00 0.00 0.00 52 1015.4
20260906173517 35 105 6.4 14.5 0.00 0.00 0.00 54 1015.6
20260906172517 34 169 0.0 14.5 0.00 0.00 0.00 57 1015.8
20260906171517 35 106 8.0 16.1 0.00 0.00 0.00 56 1016.0
20260906170537 35 115 1.6 8.0 0.00 0.00 0.00 55 1016.1
20260906165517 35 130 0.0 14.5 0.00 0.00 0.00 57 1016.3
20260906164517 34 120 3.2 17.7 0.00 0.00 0.00 57 1016.4
20260906163517 34 122 1.6 6.4 0.00 0.00 0.00 59 1016.4
20260906162517 33 123 1.6 6.4 0.00 0.00 0.00 62 1016.4
20260906161517 33 126 1.6 12.9 0.00 0.00 0.00 63 1016.4
20260906160537 33 128 0.0 12.9 0.00 0.00 0.00 63 1016.4
20260906155517 33 130 0.0 1.6 0.00 0.00 0.00 66 1016.2
20260906154517 33 121 0.0 6.4 0.00 0.00 0.00 64 1016.2
20260906153517 33 123 0.0 3.2 0.00 0.00 0.00 65 1016.2
20260906152517 32 126 0.0 4.8 0.00 0.00 0.00 67 1016.2
20260906151517 32 123 0.0 1.6 0.00 0.00 0.00 68 1016.0
20260906150517 32 0.0 1.6 0.00 0.00 0.00 68 1016.1
20260906145517 32 136 0.0 1.6 0.00 0.00 0.00 69 1016.2
20260906144517 32 0.0 1.6 0.00 0.00 0.00 71 1016.1
20260906143517 31 0.0 0.0 0.00 0.00 0.00 72 1016.1
20260906142517 31 0.0 1.6 0.00 0.00 0.00 73 1016.0
20260906141517 30 139 0.0 1.6 0.00 0.00 0.00 75 1016.1
20260906140517 30 148 0.0 3.2 0.00 0.00 0.00 77 1016.1
20260906135517 28 128 0.0 4.8 0.00 0.00 0.00 79 1016.0
20260906134517 28 128 0.0 1.6 0.00 0.00 0.00 81 1015.9
20260906133517 27 144 0.0 3.2 0.00 0.00 0.00 83 1015.8
20260906132517 27 121 0.0 4.8 0.00 0.00 0.00 84 1015.8
20260906131517 26 122 1.6 4.8 0.00 0.00 0.00 84 1015.6
20260906130537 26 124 0.0 4.8 0.00 0.00 0.00 86 1015.5
20260906125517 25 121 0.0 3.2 0.00 0.00 0.00 88 1015.5
20260906124517 25 0.0 0.0 0.00 0.00 0.00 89 1015.4
20260906121035 24 0.0 1.6 0.00 0.00 0.00 90 1015.1
20260906120015 24 0.0 0.0 0.00 0.00 0.00 90 1015.1
20260906115015 24 0.0 0.0 0.00 0.00 0.00 90 1015.0
20260906114015 24 0.0 0.0 0.00 0.00 0.00 90 1014.8
20260906113035 24 0.0 0.0 0.00 0.00 0.00 90 1014.8
20260906112035 24 0.0 0.0 0.00 0.00 0.00 90 1014.7
20260906111015 24 0.0 0.0 0.00 0.00 0.00 89 1014.7
20260906110015 24 0.0 0.0 0.00 0.00 0.00 89 1014.6
20260906105015 24 0.0 0.0 0.00 0.00 0.00 89 1014.5
20260906104015 24 0.0 0.0 0.00 0.00 0.00 89 1014.4
20260906103015 24 0.0 0.0 0.00 0.00 0.00 88 1014.3
20260906102015 24 0.0 0.0 0.00 0.00 0.00 88 1014.2
20260906101015 25 0.0 0.0 0.00 0.00 0.00 88 1014.1
20260906100015 25 0.0 0.0 0.00 0.00 0.00 88 1013.9
20260906095015 25 0.0 0.0 0.00 0.00 0.00 88 1014.0
20260906094035 25 0.0 0.0 0.00 0.00 0.00 87 1013.9
20260906093015 25 0.0 0.0 0.00 0.00 0.00 87 1014.0
20260906092015 25 0.0 0.0 0.00 0.00 0.00 86 1013.8
20260906091016 25 0.0 0.0 0.00 0.00 0.00 86 1013.8
20260906090015 25 0.0 0.0 0.00 0.00 0.00 86 1013.8
20260906085015 25 0.0 0.0 0.00 0.00 0.00 86 1013.8
20260906084015 25 0.0 0.0 0.00 0.00 0.00 86 1013.8
20260906083015 25 0.0 0.0 0.00 0.00 0.00 86 1013.8
20260906082015 25 0.0 0.0 0.00 0.00 0.00 86 1013.9
20260906081015 25 0.0 0.0 0.00 0.00 0.00 85 1013.8
20260906080015 25 0.0 0.0 0.00 0.00 0.00 85 1013.9
20260906075018 25 0.0 0.0 0.00 0.00 0.00 84 1014.0
20260906074017 26 0.0 0.0 0.00 0.00 0.00 84 1014.0
20260906073038 26 0.0 0.0 0.00 0.00 0.00 83 1014.2
20260906072018 26 143 0.0 1.6 0.00 0.00 0.00 83 1014.2
20260906071017 26 142 0.0 1.6 0.00 0.00 0.00 82 1014.4
20260906070016 26 0.0 0.0 0.00 0.00 0.00 82 1014.4
20260906065017 26 139 0.0 1.6 0.00 0.00 0.00 82 1014.4
20260906064018 27 0.0 1.6 0.00 0.00 0.00 81 1014.5
20260906063018 27 0.0 1.6 0.00 0.00 0.00 80 1014.7
20260906062017 27 147 0.0 0.0 0.00 0.00 0.00 80 1014.8
20260906061018 27 141 0.0 1.6 0.00 0.00 0.00 80 1014.8
20260906060016 27 0.0 1.6 0.00 0.00 0.00 80 1014.8
20260906055018 27 142 0.0 1.6 0.00 0.00 0.00 80 1014.6
20260906054017 27 0.0 0.0 0.00 0.00 0.00 80 1014.6
20260906053017 27 0.0 0.0 0.00 0.00 0.00 79 1014.4
20260906052038 27 125 0.0 1.6 0.00 0.00 0.00 80 1014.5
20260906051037 27 0.0 0.0 0.00 0.00 0.00 79 1014.5
20260906050037 27 121 0.0 1.6 0.00 0.00 0.00 78 1014.7
20260906045017 27 0.0 0.0 0.00 0.00 0.00 78 1014.7
20260906044018 28 0.0 0.0 0.00 0.00 0.00 77 1014.6
20260906043017 28 129 0.0 1.6 0.00 0.00 0.00 76 1014.4
20260906042018 28 0.0 1.6 0.00 0.00 0.00 76 1014.3
20260906041017 28 157 0.0 1.6 0.00 0.00 0.00 75 1014.4
20260906040017 28 155 0.0 1.6 0.00 0.00 0.00 74 1014.4
20260906035037 29 119 0.0 1.6 0.00 0.00 0.00 73 1014.5
20260906034017 29 0.0 3.2 0.00 0.00 0.00 72 1014.6
20260906033018 30 124 0.0 4.8 0.00 0.00 0.00 71 1014.6
20260906032016 30 111 3.2 14.5 0.00 0.00 0.00 70 1014.7
20260906031017 30 107 3.2 11.3 0.00 0.00 0.00 69 1014.5
20260906030017 30 126 1.6 11.3 0.00 0.00 0.00 67 1014.3
20260906025158 30 115 0.0 6.4 0.00 0.00 0.00 65 1014.1
20260906024017 30 112 0.0 4.8 0.00 0.00 0.00 64 1014.1
20260906023018 30 113 1.6 12.9 0.00 0.00 0.00 63 1013.9
20260906022017 31 98 0.0 4.8 0.00 0.00 0.00 63 1013.7
20260906021057 31 0.0 0.0 0.00 0.00 0.00 62 1013.6
20260906020017 31 113 0.0 8.0 0.00 0.00 0.00 61 1013.4
20260906015037 31 105 0.0 3.2 0.00 0.00 0.00 60 1013.3
20260906014017 32 111 3.2 8.0 0.00 0.00 0.00 59 1013.1
20260906013036 32 128 0.0 6.4 0.00 0.00 0.00 58 1013.0
20260906012017 32 148 0.0 3.2 0.00 0.00 0.00 58 1012.8
20260906011017 32 146 0.0 8.0 0.00 0.00 0.00 57 1012.6
20260906010017 33 113 0.0 6.4 0.00 0.00 0.00 56 1012.6
20260906005017 33 132 1.6 11.3 0.00 0.00 0.00 55 1012.6
20260906004017 34 110 3.2 17.7 0.00 0.00 0.00 53 1012.6
20260906003017 34 110 4.8 17.7 0.00 0.00 0.00 52 1012.6
20260906002017 35 111 6.4 24.1 0.00 0.00 0.00 51 1012.5
20260906001017 35 112 6.4 22.5 0.00 0.00 0.00 49 1012.3
20260906000017 36 109 11.3 25.7 0.00 0.00 0.00 47 1012.3
20260905235017 37 144 1.6 8.0 0.00 0.00 0.00 43 1012.2
20260905234017 37 145 1.6 8.0 0.00 0.00 0.00 43 1012.1
20260905233017 37 144 1.6 11.3 0.00 0.00 0.00 43 1012.2